Zurück zum Katalog

QIANFAN-207

AktivKommunikationPO
NORAD 69806·PAYLOAD·🇨🇳 China

Gestartet Jul 4, 2026 von Taiyuan Satellite Launch Center

Loading…

Nächste Überflüge (nächste 24 Stunden)

TLE

AktuellSource: Space-Track

Epoche: Sep 14, 2026, 14:22 UTC

1 69806U 26153G   26257.59921898  .00000056  00000-0  25389-4 0  9991
2 69806  88.9978 352.1143 0007368   1.6957 358.4249 14.06671569 10226

Verfolge QIANFAN-207 in Echtzeit mit AllMySat

Download on the App Store